Probability
35 35 39 35 32 32 32 29 29 29 29 29 26 29 26 26 23 26 26 23 26 32 26 26 26 26 16 19 19 16 13 13 13 10 3 6 10 3 0 3 3 0 0
39 32 26 23 23 32 32 29 23 23 32 26 26 29 32 26 19 23 23 23 19 26 23 23 19 19 16 16 13 10 13 13 13 10 6 6 6 0 0 3 0 0 0
39 29 19 19 23 23 19 26 23 23 26 26 26 29 19 23 19 16 23 19 16 16 16 13 16 13 13 10 10 19 16 16 16 13 10 3 0 3 0 0 0 0 0
39 32 29 29 26 26 23 23 26 19 23 19 19 16 16 16 13 10 10 10 10 13 13 13 16 16 16 13 10 10 13 13 10 13 10 3 3 0 0 0 0 0 0
32 32 29 29 29 26 23 19 19 26 26 23 19 13 13 10 6 6 6 6 10 10 13 16 16 16 13 10 13 6 6 10 10 6 10 6 6 3 3 3 3 0 0
32 32 29 29 29 26 23 16 19 23 23 23 19 16 10 6 6 6 6 6 10 13 13 13 13 13 10 3 3 3 3 3 3 3 3 3 6 0 3 3 3 3 0
26 26 26 32 26 23 19 19 13 13 13 16 13 6 13 13 6 6 3 6 6 6 6 10 10 10 10 10 3 0 3 3 3 3 6 3 0 3 3 3 6 6 3
29 29 26 29 29 26 19 13 13 10 10 10 16 10 6 10 3 0 3 3 6 6 3 6 6 10 10 10 6 6 3 3 3 3 3 3 0 0 0 0 0 3 3
29 26 29 29 29 26 19 13 13 13 13 13 16 10 10 10 3 0 0 3 3 3 3 3 6 6 6 3 3 3 3 6 0 0 0 0 0 0 0 0 3 3 0
35 29 29 29 26 19 19 19 16 13 13 16 13 13 10 10 0 0 0 0 3 3 3 3 3 3 6 0 3 3 3 3 3 6 0 0 0 0 0 0 0 3 0
32 29 29 23 23 23 19 16 16 16 13 13 13 13 6 3 3 0 0 0 3 3 3 3 3 3 0 0 0 6 3 3 0 0 3 3 0 0 0 0 0 0 3
26 23 23 19 19 19 13 13 13 13 13 13 13 10 6 3 3 0 0 0 0 0 3 3 3 3 0 0 0 0 0 0 0 0 0 3 0 0 0 0 0 0 0
23 19 16 16 16 13 13 13 13 13 13 13 10 10 3 3 3 0 0 0 0 0 0 0 0 0 0 0 0 0 0 0 0 0 0 0 0 0 0 0 0 0 0
16 13 10 10 10 6 6 10 10 10 10 6 6 6 3 3 3 3 0 0 0 0 0 0 0 0 0 0 0 0 0 0 0 0 0 0 0 0 0 0 0 0 0
13 13 10 10 3 3 3 3 3 3 3 3 3 3 3 3 0 0 3 0 0 0 0 0 0 0 0 0 0 0 0 0 0 0 0 0 0 0 0 0 0 0 0
6 6 6 6 3 3 3 0 0 0 0 0 3 3 0 0 0 0 0 0 0 0 0 0 0 0 0 0 0 0 0 0 0 0 0 0 0 0 0 0 0 0 0
6 6 6 6 3 3 0 0 0 0 0 0 0 0 0 0 0 0 0 0 0 0 0 0 0 0 0 0 0 0 0 0 0 0 0 0 0 0 0 0 0 0 0
3 3 3 0 0 0 0 0 0 0 0 0 0 0 0 0 0 0 0 0 0 0 0 0 0 0 0 0 0 0 0 0 0 0 0 0 0 0 0 0 0 0 0
0 0 0 0 0 0 0 0 0 0 0 0 0 0 0 0 0 0 0 0 0 0 0 0 0 0 0 0 0 0 0 0 0 0 0 0 0 0 0 0 0 0 0
0 0 0 0 0 0 0 0 0 0 0 0 0 0 0 0 0 0 0 0 0 0 0 0 0 0 0 0 0 0 0 0 0 0 0 0 0 0 0 0 0 0 0
0 0 0 0 0 0 0 0 0 0 0 0 0 0 0 0 0 0 0 0 0 0 0 0 0 0 0 0 0 0 0 0 0 0 0 0 0 0 0 0 0 0 0
0 0 0 0 0 0 0 0 0 0 0 0 0 0 0 0 0 0 0 0 0 0 0 0 0 0 0 0 0 0 0 0 0 0 0 0 0 0 0 0 0 0 0
0 0 0 0 0 0 0 0 0 0 0 0 0 0 0 0 0 0 0 0 0 0 0 0 0 0 0 0 0 0 0 0 0 0 0 0 0 0 0 0 0 0 0
0 0 0 0 0 0 0 0 0 0 0 0 0 0 0 0 0 0 0 0 0 0 0 0 0 0 0 0 0 0 0 0 0 0 0 0 0 0 0 0 0 0 0
0 0 0 0 0 0 0 0 0 0 0 0 0 0 0 0 0 0 0 0 0 0 0 0 0 0 0 0 0 0 0 0 0 0 0 0 0 0 0 0 0 0 0
0 0 0 0 0 0 0 0 0 0 0 0 0 0 0 0 0 0 0 0 0 0 0 0 0 0 0 0 0 0 0 0 0 0 0 0 0 0 0 0 0 0 0
Height
5895 5894 5893 5891 5890 5888 5887 5885 5884 5883 5882 5880 5879 5877 5876 5874 5872 5870 5869 5867 5866 5864 5862 5861 5859 5857 5856 5854 5853 5851 5850 5848 5847 5845 5843 5841 5839 5837 5835 5834 5833 5833 5832
5891 5890 5888 5887 5885 5884 5882 5880 5878 5877 5876 5875 5873 5872 5870 5868 5866 5865 5863 5861 5860 5858 5856 5854 5853 5851 5849 5848 5846 5845 5843 5842 5840 5839 5837 5834 5832 5830 5829 5827 5826 5825 5825
5886 5885 5883 5882 5880 5879 5877 5875 5874 5872 5871 5869 5867 5866 5864 5862 5860 5858 5856 5855 5853 5852 5850 5848 5846 5844 5842 5841 5839 5838 5836 5835 5833 5832 5830 5828 5826 5824 5822 5820 5819 5819 5818
5881 5880 5878 5877 5875 5873 5872 5870 5868 5866 5865 5863 5861 5860 5858 5856 5854 5852 5850 5848 5846 5844 5842 5841 5839 5837 5835 5834 5832 5831 5829 5828 5826 5825 5823 5821 5819 5817 5815 5814 5813 5812 5811
5875 5874 5872 5871 5869 5868 5866 5864 5862 5860 5859 5857 5855 5854 5852 5850 5847 5845 5843 5841 5839 5837 5835 5833 5831 5829 5827 5826 5824 5823 5822 5820 5819 5817 5816 5814 5812 5811 5809 5807 5806 5805 5804
5868 5867 5866 5864 5862 5861 5859 5857 5855 5853 5852 5850 5848 5847 5845 5842 5840 5838 5836 5833 5831 5829 5827 5825 5822 5821 5819 5817 5816 5814 5813 5812 5811 5809 5807 5806 5804 5803 5802 5800 5799 5798 5797
5861 5860 5859 5857 5855 5854 5851 5850 5848 5846 5844 5842 5840 5838 5836 5834 5831 5829 5827 5825 5822 5820 5818 5816 5814 5812 5810 5809 5807 5806 5804 5803 5802 5800 5799 5797 5796 5795 5793 5792 5791 5789 5788
5854 5852 5851 5849 5848 5846 5844 5842 5839 5837 5835 5833 5831 5829 5827 5825 5822 5820 5817 5815 5813 5811 5809 5807 5805 5803 5802 5800 5798 5796 5795 5793 5792 5790 5789 5788 5787 5786 5784 5784 5782 5781 5779
5846 5844 5843 5841 5839 5837 5835 5833 5831 5829 5826 5824 5822 5820 5818 5815 5813 5810 5808 5806 5803 5801 5800 5798 5796 5794 5792 5790 5789 5787 5785 5784 5782 5780 5779 5778 5777 5776 5775 5774 5772 5771 5770
5837 5835 5833 5832 5830 5828 5826 5824 5822 5820 5817 5815 5812 5810 5807 5805 5802 5800 5798 5795 5793 5792 5790 5788 5786 5784 5782 5780 5778 5777 5775 5774 5772 5770 5769 5768 5766 5765 5764 5763 5762 5760 5759
5828 5826 5824 5822 5820 5818 5816 5814 5812 5810 5808 5805 5803 5800 5797 5794 5791 5789 5787 5785 5783 5781 5780 5778 5775 5773 5771 5769 5767 5766 5764 5763 5761 5760 5758 5757 5755 5754 5753 5752 5751 5750 5749
5818 5817 5815 5812 5810 5808 5806 5804 5802 5800 5797 5795 5792 5790 5787 5784 5781 5779 5777 5775 5773 5771 5769 5767 5765 5763 5760 5758 5756 5754 5753 5751 5750 5749 5748 5746 5745 5744 5743 5742 5741 5740 5739
5809 5807 5805 5802 5800 5798 5796 5794 5791 5789 5787 5784 5782 5779 5776 5773 5770 5768 5766 5764 5762 5760 5758 5756 5754 5752 5750 5747 5745 5743 5742 5740 5739 5738 5737 5735 5734 5733 5732 5731 5731 5730 5729
5799 5797 5795 5792 5790 5787 5785 5783 5781 5778 5776 5773 5771 5768 5765 5763 5760 5757 5755 5753 5751 5749 5747 5745 5743 5741 5738 5736 5734 5732 5730 5729 5727 5726 5725 5724 5723 5722 5721 5720 5720 5719 5719
5788 5787 5784 5781 5779 5777 5774 5772 5770 5768 5765 5763 5760 5758 5755 5752 5749 5747 5745 5742 5740 5738 5736 5734 5732 5730 5727 5725 5723 5721 5720 5718 5716 5715 5714 5713 5711 5711 5710 5709 5709 5708 5708
5778 5776 5774 5771 5768 5766 5764 5762 5759 5757 5754 5752 5749 5747 5744 5742 5739 5736 5734 5732 5729 5727 5725 5723 5720 5718 5716 5714 5712 5710 5709 5707 5705 5704 5703 5702 5700 5700 5699 5698 5697 5697 5697
5767 5765 5763 5761 5758 5756 5753 5751 5749 5747 5744 5741 5739 5736 5734 5731 5729 5726 5724 5721 5719 5717 5714 5712 5709 5707 5705 5703 5701 5699 5698 5697 5695 5693 5692 5691 5690 5689 5688 5687 5686 5686 5686
5756 5754 5752 5750 5748 5745 5743 5740 5738 5736 5734 5731 5728 5726 5723 5721 5718 5716 5713 5711 5709 5706 5704 5701 5699 5697 5695 5693 5691 5689 5688 5686 5685 5683 5682 5681 5679 5678 5677 5676 5676 5675 5675
5746 5744 5741 5739 5737 5735 5732 5730 5728 5725 5723 5720 5718 5715 5713 5710 5708 5706 5703 5700 5698 5696 5693 5691 5689 5687 5685 5683 5681 5679 5678 5676 5675 5673 5672 5671 5669 5668 5667 5666 5665 5664 5664
5736 5734 5731 5729 5727 5724 5722 5720 5717 5715 5712 5710 5708 5705 5703 5701 5698 5696 5693 5690 5688 5685 5683 5681 5679 5677 5674 5673 5671 5669 5668 5666 5665 5663 5662 5661 5659 5658 5657 5656 5655 5654 5654
5726 5724 5722 5719 5717 5714 5711 5709 5707 5704 5702 5700 5698 5695 5693 5691 5688 5685 5682 5680 5677 5675 5673 5670 5668 5666 5664 5662 5661 5659 5658 5656 5655 5653 5652 5650 5649 5648 5647 5646 5645 5644 5643
5716 5714 5712 5709 5707 5704 5702 5699 5696 5694 5692 5690 5688 5685 5683 5680 5678 5675 5672 5670 5667 5665 5663 5660 5658 5656 5655 5653 5651 5650 5648 5647 5645 5643 5642 5641 5639 5638 5637 5636 5635 5634 5633
5706 5704 5702 5699 5697 5695 5692 5690 5687 5685 5682 5680 5678 5675 5673 5670 5667 5665 5662 5660 5657 5655 5653 5651 5649 5647 5645 5643 5642 5640 5639 5637 5636 5634 5633 5631 5630 5629 5627 5626 5625 5624 5623
5696 5694 5692 5690 5687 5685 5682 5680 5677 5675 5672 5670 5668 5665 5662 5660 5657 5655 5652 5650 5648 5646 5644 5641 5640 5638 5636 5634 5632 5631 5629 5628 5627 5625 5623 5622 5620 5619 5618 5617 5615 5614 5613
5687 5685 5682 5680 5677 5675 5672 5670 5667 5665 5662 5660 5657 5655 5652 5649 5647 5645 5642 5640 5638 5636 5634 5631 5630 5628 5626 5624 5622 5621 5620 5618 5617 5615 5614 5612 5611 5609 5608 5607 5606 5605 5604
5677 5675 5673 5670 5667 5665 5663 5660 5657 5655 5652 5650 5647 5644 5642 5639 5637 5635 5632 5630 5627 5625 5623 5621 5619 5617 5615 5614 5612 5611 5610 5608 5607 5605 5604 5602 5601 5600 5598 5597 5596 5596 5595
Wind_Speed
13 13 14 14 15 15 15 15 16 17 17 17 17 18 18 19 19 19 19 19 20 21 22 22 23 24 23 24 24 24 23 23 23 23 24 24 24 25 25 25 24 23 23
15 15 16 16 17 17 17 18 18 18 18 19 19 20 21 21 22 21 21 22 22 23 23 23 23 24 24 25 25 25 25 24 24 24 24 25 24 24 24 24 24 24 25
17 18 18 19 19 19 19 20 21 20 20 21 21 21 22 24 24 24 24 24 25 25 26 25 25 26 26 26 26 26 26 25 25 24 24 24 24 24 24 24 24 24 25
19 20 20 21 21 22 22 22 22 22 23 24 23 23 24 25 25 26 26 26 27 27 27 27 28 28 28 28 27 27 27 26 26 25 24 25 25 25 25 24 24 26 26
22 22 23 23 24 24 24 24 24 25 25 25 26 26 27 27 27 28 28 29 29 29 29 29 29 29 29 29 29 29 28 28 27 26 26 26 26 26 26 25 25 26 26
23 24 24 25 25 25 26 26 27 27 27 28 28 28 29 30 30 31 31 30 30 30 29 29 30 30 30 30 30 30 30 30 29 29 28 28 28 27 27 27 27 27 27
24 25 26 26 27 28 28 28 28 29 30 30 30 31 31 32 32 33 33 32 31 31 31 30 30 30 30 31 31 31 31 31 31 31 30 30 30 29 29 29 29 29 28
25 26 26 27 28 29 29 29 30 31 30 31 32 33 34 34 34 33 33 33 32 32 32 32 32 31 32 32 33 33 32 33 33 33 33 32 32 32 31 31 31 31 30
27 28 28 29 29 30 31 31 32 32 32 33 34 35 35 35 35 35 34 34 34 34 33 33 32 32 33 33 33 34 34 34 35 35 35 34 34 34 34 33 33 33 32
30 30 30 30 31 31 32 32 33 34 34 34 34 35 36 36 36 35 35 35 35 35 35 34 34 34 35 35 35 34 34 35 35 35 35 36 36 35 35 34 33 33 32
32 32 32 33 33 33 33 34 34 35 35 35 35 36 36 36 36 36 35 34 35 35 35 36 36 36 36 36 36 36 36 36 36 35 35 35 35 35 34 34 34 34 33
34 34 34 35 35 35 36 36 36 36 37 37 37 36 37 37 37 36 36 35 36 36 36 36 36 36 36 36 36 36 36 36 35 35 35 35 35 35 35 34 33 33 33
35 35 36 36 36 36 37 37 37 38 38 37 37 37 38 38 38 37 36 36 36 36 36 36 36 35 36 36 36 36 36 36 35 35 35 35 35 35 34 34 33 33 33
35 35 35 36 36 36 36 37 37 37 37 37 37 37 38 37 37 37 36 36 36 36 36 36 36 36 35 35 35 36 36 35 35 35 35 35 35 34 34 34 34 34 34
35 35 35 36 35 35 35 36 36 37 37 37 37 37 37 37 36 36 35 35 36 36 36 36 36 36 35 35 35 35 35 34 34 34 34 34 34 34 34 34 34 34 34
35 35 35 36 36 36 35 35 35 35 36 36 36 36 36 37 36 35 35 35 36 36 36 36 36 35 35 35 35 34 33 33 33 33 33 33 34 34 34 34 34 34 34
36 36 35 36 36 36 36 35 35 35 35 35 35 36 36 36 36 35 35 35 35 35 35 35 34 34 34 34 34 33 33 33 33 33 33 33 33 33 32 32 33 33 33
36 36 35 35 35 35 35 35 35 34 35 35 35 35 36 36 35 35 35 35 35 34 34 34 33 33 33 33 32 32 32 32 32 32 32 33 33 32 32 32 33 33 32
35 35 35 34 34 34 34 34 34 34 34 34 34 35 35 35 34 34 35 35 35 34 33 33 33 32 32 31 31 31 31 31 31 32 32 31 31 30 31 32 32 31 31
34 35 35 35 35 35 35 34 34 34 34 34 34 34 34 34 34 34 34 35 34 34 33 33 32 32 32 31 31 31 30 30 30 31 31 30 29 29 29 30 29 29 29
34 33 33 33 33 33 33 33 33 34 34 33 33 33 33 33 33 34 34 34 33 33 32 32 32 31 31 31 31 30 30 30 30 30 30 29 29 29 29 29 29 29 29
32 32 32 32 32 32 32 32 32 31 31 32 32 32 33 33 33 33 33 32 32 31 30 30 29 29 30 30 29 28 28 28 28 28 29 29 29 28 28 29 29 29 29
32 32 31 31 32 32 32 32 31 31 31 31 31 32 32 32 32 32 32 32 31 30 29 29 29 29 29 29 29 28 28 28 27 28 28 28 27 27 28 28 28 27 27
31 31 31 31 32 32 31 30 30 30 31 31 32 32 32 32 32 32 32 31 30 30 29 30 29 29 28 29 29 28 28 28 28 28 28 27 27 27 27 27 27 26 26
30 30 31 31 32 32 31 31 31 31 31 31 31 32 32 32 32 31 31 31 31 31 30 30 30 29 29 29 28 28 28 28 28 28 28 28 27 26 26 26 26 26 25
30 30 31 32 32 31 31 31 31 30 30 31 31 31 31 32 32 32 31 31 30 30 30 31 31 30 30 30 29 28 28 28 28 28 28 27 27 26 26 26 26 26 26
Wind_Direction
297 296 294 293 295 292 294 295 292 292 295 297 298 296 296 295 293 293 292 291 287 286 286 287 288 288 287 286 287 288 288 289 286 285 284 283 281 280 280 280 277 275 275
297 295 293 292 292 293 292 294 293 291 291 294 295 294 293 292 292 292 290 290 289 288 287 287 287 287 287 286 287 287 289 290 289 287 285 281 281 281 281 280 278 274 272
294 292 292 292 292 293 294 293 295 293 292 295 296 295 293 292 293 292 290 290 289 288 288 287 286 285 286 286 287 287 288 289 290 289 287 284 283 283 281 282 279 278 277
287 287 288 289 290 290 291 292 293 293 294 296 296 297 297 297 296 295 293 291 290 287 286 287 287 285 285 286 287 288 289 289 289 290 288 286 284 283 281 282 281 278 278
285 286 287 286 288 289 289 290 290 289 292 293 294 296 296 295 295 294 294 294 293 290 289 288 287 287 286 287 286 287 287 287 288 287 287 286 285 284 282 282 280 279 279
285 285 287 288 287 289 289 288 289 290 291 291 292 293 293 293 293 293 293 294 293 291 290 288 288 287 286 286 286 285 285 286 287 286 285 284 284 283 282 281 280 279 278
285 285 285 287 287 288 289 288 289 289 288 289 291 292 293 292 292 292 291 291 292 291 290 289 289 288 286 286 286 285 285 285 285 285 284 283 283 282 281 281 280 279 279
285 286 287 287 287 287 289 289 290 291 291 293 293 294 293 294 293 291 289 288 289 289 289 288 288 286 285 285 286 286 285 285 285 284 283 282 281 281 281 281 281 281 280
286 286 287 288 287 288 288 289 291 292 293 294 295 294 293 293 293 292 290 289 288 288 289 289 288 287 287 285 285 285 284 284 284 283 282 281 281 280 280 280 279 280 279
286 286 287 287 286 287 287 289 291 292 293 294 294 293 292 292 291 290 290 289 288 288 288 288 288 288 288 287 285 284 284 284 284 283 283 281 280 279 278 277 278 279 278
285 285 286 286 285 285 287 289 290 291 292 294 294 294 294 293 291 289 289 289 290 289 288 289 288 288 287 286 285 285 285 284 284 283 283 282 280 278 277 276 277 278 278
284 285 285 286 286 286 287 289 290 290 292 293 293 294 294 293 291 290 289 289 289 288 289 289 288 287 286 286 285 285 284 284 283 282 281 280 278 276 276 276 275 276 276
283 284 286 286 286 287 288 288 289 290 291 292 293 293 294 294 292 290 289 290 289 289 288 287 287 286 285 285 284 284 282 282 282 280 278 278 277 275 275 274 274 275 276
285 285 285 285 285 286 287 287 288 289 290 292 292 293 293 293 292 291 290 289 290 289 289 288 288 287 286 285 284 284 282 281 282 280 278 276 276 275 275 274 274 275 275
285 286 285 285 286 287 287 287 287 288 289 290 291 292 292 293 293 292 291 291 290 290 289 289 288 288 287 285 285 284 282 282 281 280 280 277 276 275 275 274 273 274 275
286 287 288 288 288 288 288 288 289 289 289 290 291 292 292 292 292 291 291 291 290 290 290 290 289 288 287 286 285 284 283 281 281 281 280 280 278 276 275 274 274 274 275
286 286 287 288 289 289 289 289 289 288 289 290 291 291 291 292 291 291 291 291 290 290 290 290 289 288 287 287 286 284 283 282 281 281 280 280 279 277 275 274 274 274 275
287 286 286 288 289 288 288 287 287 287 288 288 290 290 290 291 291 291 290 290 289 289 290 290 289 288 288 287 286 285 284 283 282 281 281 281 280 278 277 275 275 274 273
288 287 287 287 287 287 287 287 287 288 289 289 289 289 290 291 291 291 291 290 290 289 289 289 288 287 287 287 286 285 284 283 282 282 282 281 281 280 279 278 275 273 273
287 287 287 287 288 287 286 286 287 288 289 289 288 289 289 290 291 292 292 291 290 289 288 287 286 286 285 285 286 285 284 283 282 282 282 282 281 281 280 278 275 274 274
287 287 288 288 288 288 288 288 289 288 288 289 290 290 290 290 291 292 292 292 291 289 288 288 286 285 284 284 285 285 284 284 283 282 281 283 282 281 280 279 276 276 275
288 288 289 289 289 289 288 289 290 291 291 291 290 289 290 292 292 293 292 292 292 291 289 289 288 287 285 284 284 284 284 283 283 283 282 282 282 280 279 278 277 276 276
288 288 289 289 289 289 290 290 290 290 289 290 290 290 291 292 293 293 292 292 290 289 288 288 287 286 285 285 283 282 283 284 284 284 284 283 282 280 279 278 278 276 275
288 289 288 289 290 290 290 291 290 290 290 290 290 290 291 292 292 292 291 289 288 288 288 287 287 285 285 285 284 283 283 284 285 285 285 285 284 282 281 279 279 278 275
288 288 287 288 290 290 290 291 290 290 290 291 291 291 292 292 291 291 291 291 289 287 287 287 287 285 283 284 284 284 283 284 285 285 284 284 283 282 282 280 277 277 276
290 289 289 290 291 290 290 290 290 291 291 291 291 291 291 291 291 291 291 291 289 288 287 286 286 285 284 283 284 285 284 284 284 284 284 283 282 281 281 279 277 277 276